Location: Newark
(45.4422°N, 16.2769°E)
Time: 06:06:09
(UTC+00:00)

Tiros 1 despin weight - Pass Details

Date: 21 December 2019
Orbit: 593 x 643 km, 48.2° (Epoch: 17 January)

Event Time Altitude Azimuth Distance (km) Brightness Sun altitude
Rises 06:11:18 0° 286° (WNW) 2,876 - -3.8°
Exits shadow 06:12:11 - 283° (WNW) 2,555 ? -3.7°
Reaches altitude 10° 06:13:58 10° 273° (W) 1,959 ? -3.4°
Maximum altitude 06:17:31 23° 220° (SW) 1,278 ? -2.9°
Drops below altitude 10° 06:21:02 10° 167° (SSE) 1,929 ? -2.4°
Sets 06:23:39 0° 153° (SSE) 2,822 ? -2.0°
